| time (UTC) | temp F | wind direction | speed MPH | gust MPH | rain 1hr in | rain 24hr in | rain mn in | humidity % | barometer mb |
| 20260507141212 | 59 | 350 | 3.0 | 6.0 | 0.00 | 0.00 | 0.00 | 80 | 1018.6 |
| 20260507140916 | 59 | 322 | 2.0 | 5.0 | 0.00 | 0.00 | 0.00 | 80 | 1018.8 |
| 20260507140133 | 58 | 58 | 3.0 | 6.0 | 0.00 | 0.00 | 0.00 | 81 | 1018.8 |
| 20260507135219 | 58 | 31 | 2.0 | 8.0 | 0.00 | 0.00 | 0.00 | 84 | 1018.6 |
| 20260507134148 | 57 | 46 | 1.0 | 5.0 | 0.00 | 0.00 | 0.00 | 85 | 1018.7 |
| 20260507133127 | 56 | 99 | 2.0 | 5.0 | 0.00 | 0.00 | 0.00 | 87 | 1018.7 |
| 20260507132259 | 56 | 76 | 0.0 | 4.0 | 0.00 | 0.00 | 0.00 | 88 | 1018.7 |
| 20260507131138 | 55 | 344 | 1.0 | 9.0 | 0.00 | 0.00 | 0.00 | 88 | 1018.9 |
| 20260507130141 | 55 | 355 | 1.0 | 4.0 | 0.00 | 0.00 | 0.00 | 89 | 1018.7 |
| 20260507125206 | 54 | 17 | 1.0 | 6.0 | 0.00 | 0.00 | 0.00 | 90 | 1018.7 |
| 20260507124223 | 54 | 76 | 1.0 | 3.0 | 0.00 | 0.00 | 0.00 | 90 | 1018.8 |
| 20260507123136 | 54 | 327 | 0.0 | 4.0 | 0.00 | 0.00 | 0.00 | 90 | 1018.8 |
| 20260507122209 | 54 | 9 | 0.0 | 3.0 | 0.00 | 0.00 | 0.00 | 90 | 1018.5 |
| 20260507121140 | 53 | 5 | 0.0 | 2.0 | 0.00 | 0.00 | 0.00 | 89 | 1018.5 |
| 20260507115145 | 53 | 15 | 1.0 | 3.0 | 0.00 | 0.00 | 0.00 | 89 | 1018.0 |
| 20260507114221 | 53 | 31 | 1.0 | 3.0 | 0.00 | 0.00 | 0.00 | 89 | 1017.8 |
| 20260507113145 | 53 | 21 | 0.0 | 1.0 | 0.00 | 0.00 | 0.00 | 88 | 1017.8 |
| 20260507112219 | 53 | 21 | 0.0 | 2.0 | 0.00 | 0.00 | 0.00 | 88 | 1017.6 |
| 20260507111145 | 54 | 22 | 1.0 | 3.0 | 0.00 | 0.00 | 0.00 | 88 | 1017.4 |
| 20260507110221 | 54 | 46 | 1.0 | 5.0 | 0.00 | 0.00 | 0.00 | 88 | 1017.0 |
| 20260507105128 | 54 | 5 | 1.0 | 4.0 | 0.00 | 0.00 | 0.00 | 87 | 1016.5 |
| 20260507103240 | 54 | 40 | 1.0 | 3.0 | 0.00 | 0.00 | 0.00 | 86 | 1016.2 |
| 20260507102145 | 54 | 19 | 0.0 | 4.0 | 0.00 | 0.00 | 0.00 | 87 | 1016.1 |
| 20260507101221 | 54 | 43 | 0.0 | 3.0 | 0.00 | 0.00 | 0.00 | 87 | 1016.0 |
| 20260507100151 | 54 | 13 | 1.0 | 3.0 | 0.00 | 0.00 | 0.00 | 87 | 1015.8 |
| 20260507095128 | 54 | 30 | 0.0 | 5.0 | 0.00 | 0.00 | 0.00 | 87 | 1016.1 |
| 20260507094215 | 54 | 109 | 0.0 | 3.0 | 0.00 | 0.00 | 0.00 | 87 | 1015.7 |
| 20260507093238 | 54 | 17 | 1.0 | 4.0 | 0.00 | 0.00 | 0.00 | 87 | 1015.8 |
| 20260507091152 | 54 | 75 | 0.0 | 2.0 | 0.00 | 0.00 | 0.00 | 87 | 1015.6 |
| 20260507090128 | 54 | 74 | 0.0 | 2.0 | 0.00 | 0.00 | 0.00 | 87 | 1015.4 |
| 20260507085211 | 54 | 64 | 1.0 | 4.0 | 0.00 | 0.00 | 0.00 | 87 | 1015.1 |
| 20260507084146 | 54 | 64 | 2.0 | 4.0 | 0.00 | 0.00 | 0.00 | 87 | 1015.3 |
| 20260507083204 | 54 | 101 | 0.0 | 7.0 | 0.00 | 0.00 | 0.00 | 87 | 1015.4 |
| 20260507082127 | 54 | 80 | 1.0 | 8.0 | 0.00 | 0.00 | 0.00 | 87 | 1015.1 |
| 20260507081205 | 54 | 30 | 1.0 | 9.0 | 0.00 | 0.00 | 0.00 | 87 | 1015.0 |
| 20260507080155 | 55 | 113 | 1.0 | 5.0 | 0.00 | 0.00 | 0.00 | 87 | 1015.2 |
| 20260507075217 | 55 | 71 | 2.0 | 4.0 | 0.00 | 0.00 | 0.00 | 88 | 1015.1 |
| 20260507074144 | 55 | 76 | 2.0 | 5.0 | 0.00 | 0.00 | 0.00 | 87 | 1015.3 |
| 20260507073125 | 55 | 62 | 4.0 | 6.0 | 0.00 | 0.00 | 0.00 | 87 | 1015.4 |
| 20260507071206 | 55 | 56 | 1.0 | 5.0 | 0.00 | 0.00 | 0.00 | 87 | 1015.7 |
| 20260507070128 | 55 | 104 | 2.0 | 10.0 | 0.00 | 0.00 | 0.00 | 87 | 1016.0 |
| 20260507065146 | 55 | 89 | 1.0 | 10.0 | 0.00 | 0.00 | 0.00 | 88 | 1016.0 |
| 20260507064134 | 55 | 72 | 2.0 | 10.0 | 0.00 | 0.00 | 0.00 | 88 | 1016.3 |
| 20260507063142 | 55 | 81 | 1.0 | 8.0 | 0.00 | 0.00 | 0.00 | 87 | 1016.1 |
| 20260507062130 | 55 | 138 | 2.0 | 8.0 | 0.00 | 0.00 | 0.00 | 87 | 1016.4 |
| 20260507061147 | 56 | 28 | 2.0 | 9.0 | 0.00 | 0.00 | 0.00 | 87 | 1016.2 |
| 20260507060136 | 56 | 61 | 2.0 | 7.0 | 0.00 | 0.00 | 0.00 | 87 | 1016.1 |
| 20260507055125 | 56 | 13 | 2.0 | 10.0 | 0.00 | 0.00 | 0.00 | 87 | 1016.1 |
| 20260507054133 | 56 | 344 | 3.0 | 6.0 | 0.00 | 0.00 | 0.00 | 87 | 1016.1 |
| 20260507053131 | 56 | 311 | 1.0 | 4.0 | 0.00 | 0.00 | 0.00 | 87 | 1016.1 |
| 20260507052149 | 56 | 65 | 3.0 | 11.0 | 0.00 | 0.00 | 0.00 | 86 | 1016.2 |
| 20260507051144 | 56 | 90 | 1.0 | 8.0 | 0.00 | 0.00 | 0.00 | 87 | 1016.3 |
| 20260507050842 | 56 | 119 | 2.0 | 8.0 | 0.00 | 0.00 | 0.00 | 86 | 1016.3 |
| 20260507050125 | 56 | 62 | 3.0 | 8.0 | 0.00 | 0.00 | 0.00 | 87 | 1016.4 |
| 20260507045137 | 56 | 355 | 2.0 | 5.0 | 0.00 | 0.00 | 0.00 | 87 | 1016.3 |
| 20260507044201 | 56 | 51 | 2.0 | 7.0 | 0.00 | 0.00 | 0.00 | 87 | 1016.3 |
| 20260507043217 | 56 | 21 | 2.0 | 6.0 | 0.00 | 0.00 | 0.00 | 87 | 1015.9 |
| 20260507042145 | 57 | 83 | 3.0 | 10.0 | 0.00 | 0.00 | 0.00 | 87 | 1016.1 |
| 20260507040129 | 57 | 5 | 3.0 | 8.0 | 0.00 | 0.00 | 0.00 | 88 | 1016.1 |
| 20260507035142 | 57 | 5 | 1.0 | 9.0 | 0.00 | 0.00 | 0.00 | 89 | 1016.0 |
| 20260507034222 | 58 | 102 | 2.0 | 4.0 | 0.00 | 0.00 | 0.00 | 89 | 1015.4 |
| 20260507033146 | 58 | 36 | 2.0 | 6.0 | 0.00 | 0.00 | 0.00 | 89 | 1015.8 |
| 20260507032219 | 58 | 25 | 1.0 | 12.0 | 0.00 | 0.00 | 0.00 | 89 | 1015.2 |
| 20260507031138 | 58 | 63 | 3.0 | 9.0 | 0.00 | 0.00 | 0.00 | 88 | 1015.2 |
| 20260507030138 | 58 | 23 | 1.0 | 6.0 | 0.00 | 0.00 | 0.00 | 88 | 1015.0 |
| 20260507025211 | 59 | 360 | 2.0 | 11.0 | 0.00 | 0.00 | 0.00 | 88 | 1015.0 |
| 20260507024139 | 59 | 323 | 3.0 | 9.0 | 0.00 | 0.00 | 0.00 | 89 | 1014.7 |
| 20260507023201 | 59 | 85 | 2.0 | 10.0 | 0.00 | 0.00 | 0.00 | 90 | 1014.2 |
| 20260507022129 | 59 | 49 | 3.0 | 10.0 | 0.00 | 0.00 | 0.00 | 91 | 1014.2 |
| 20260507021152 | 59 | 340 | 3.0 | 8.0 | 0.00 | 0.00 | 0.00 | 91 | 1014.2 |
| 20260507020208 | 59 | 23 | 2.0 | 9.0 | 0.00 | 0.00 | 0.00 | 92 | 1013.9 |
| 20260507015238 | 60 | 98 | 1.0 | 9.0 | 0.00 | 0.00 | 0.00 | 92 | 1013.6 |
| 20260507013147 | 60 | 40 | 3.0 | 8.0 | 0.00 | 0.00 | 0.00 | 92 | 1012.7 |
| 20260507012126 | 60 | 51 | 3.0 | 10.0 | 0.00 | 0.00 | 0.00 | 92 | 1012.9 |
| 20260507011146 | 61 | 29 | 2.0 | 8.0 | 0.00 | 0.00 | 0.00 | 92 | 1012.9 |
| 20260507010134 | 61 | 148 | 2.0 | 9.0 | 0.00 | 0.00 | 0.00 | 93 | 1012.6 |
| 20260507005213 | 61 | 55 | 2.0 | 6.0 | 0.00 | 0.00 | 0.00 | 93 | 1012.3 |
| 20260507003149 | 62 | 102 | 1.0 | 6.0 | 0.00 | 0.00 | 0.00 | 92 | 1012.3 |
| 20260507002133 | 62 | 24 | 1.0 | 4.0 | 0.00 | 0.00 | 0.00 | 92 | 1012.0 |
| 20260507001207 | 62 | 5 | 1.0 | 5.0 | 0.00 | 0.00 | 0.00 | 91 | 1012.3 |
| 20260507000208 | 62 | 49 | 2.0 | 8.0 | 0.00 | 0.00 | 0.00 | 91 | 1012.4 |
| 20260506235221 | 62 | 46 | 1.0 | 10.0 | 0.00 | 0.00 | 0.00 | 91 | 1012.2 |
| 20260506234148 | 62 | 284 | 4.0 | 10.0 | 0.00 | 0.00 | 0.00 | 90 | 1012.5 |
| 20260506233216 | 62 | 355 | 2.0 | 5.0 | 0.00 | 0.00 | 0.00 | 90 | 1012.4 |
| 20260506232151 | 62 | 34 | 1.0 | 8.0 | 0.00 | 0.00 | 0.00 | 90 | 1012.2 |
| 20260506231206 | 62 | 66 | 1.0 | 4.0 | 0.00 | 0.00 | 0.00 | 90 | 1012.2 |
| 20260506230923 | 62 | 346 | 0.0 | 7.0 | 0.00 | 0.00 | 0.00 | 90 | 1012.1 |
| 20260506230135 | 62 | 311 | 1.0 | 7.0 | 0.00 | 0.00 | 0.00 | 90 | 1011.9 |
| 20260506225159 | 62 | 33 | 1.0 | 6.0 | 0.00 | 0.00 | 0.00 | 90 | 1011.9 |
| 20260506222204 | 63 | 5 | 2.0 | 5.0 | 0.00 | 0.00 | 0.00 | 89 | 1011.7 |
| 20260506221123 | 63 | 320 | 2.0 | 6.0 | 0.00 | 0.00 | 0.00 | 89 | 1011.6 |
| 20260506220146 | 62 | 38 | 2.0 | 8.0 | 0.00 | 0.00 | 0.00 | 89 | 1011.5 |
| 20260506215158 | 62 | 346 | 3.0 | 12.0 | 0.00 | 0.00 | 0.00 | 88 | 1011.4 |
| 20260506214222 | 63 | 5 | 3.0 | 8.0 | 0.00 | 0.00 | 0.00 | 87 | 1011.6 |
| 20260506213145 | 63 | 13 | 1.0 | 5.0 | 0.00 | 0.00 | 0.00 | 87 | 1011.8 |
| 20260506212216 | 63 | 355 | 2.0 | 9.0 | 0.00 | 0.00 | 0.00 | 87 | 1011.7 |
| 20260506211134 | 64 | 67 | 3.0 | 6.0 | 0.00 | 0.00 | 0.00 | 86 | 1011.6 |
| 20260506210139 | 64 | 71 | 2.0 | 8.0 | 0.00 | 0.00 | 0.00 | 85 | 1011.4 |
| 20260506205223 | 64 | 333 | 2.0 | 9.0 | 0.00 | 0.00 | 0.00 | 85 | 1011.3 |
| 20260506204142 | 64 | 275 | 1.0 | 5.0 | 0.00 | 0.00 | 0.00 | 86 | 1011.1 |
| 20260506203222 | 64 | 29 | 1.0 | 9.0 | 0.00 | 0.00 | 0.00 | 86 | 1011.0 |
| 20260506201138 | 63 | 20 | 3.0 | 6.0 | 0.00 | 0.00 | 0.00 | 86 | 1011.4 |
| 20260506200830 | 63 | 13 | 2.0 | 6.0 | 0.00 | 0.00 | 0.00 | 86 | 1011.5 |
| 20260506200142 | 63 | 325 | 0.0 | 4.0 | 0.00 | 0.00 | 0.00 | 86 | 1011.7 |
| 20260506195141 | 63 | 33 | 2.0 | 4.0 | 0.00 | 0.00 | 0.00 | 86 | 1011.6 |
| 20260506194148 | 63 | 327 | 1.0 | 4.0 | 0.00 | 0.00 | 0.00 | 87 | 1012.0 |
| 20260506193230 | 62 | 59 | 1.0 | 5.0 | 0.00 | 0.00 | 0.00 | 87 | 1012.0 |
| 20260506192136 | 62 | 71 | 1.0 | 5.0 | 0.00 | 0.00 | 0.00 | 87 | 1011.7 |
| 20260506191201 | 62 | 98 | 2.0 | 8.0 | 0.00 | 0.00 | 0.00 | 87 | 1011.8 |
| 20260506185146 | 62 | 63 | 2.0 | 8.0 | 0.00 | 0.00 | 0.00 | 85 | 1011.3 |
| 20260506184221 | 62 | 28 | 3.0 | 8.0 | 0.00 | 0.00 | 0.00 | 85 | 1010.9 |
| 20260506183144 | 63 | 5 | 2.0 | 9.0 | 0.00 | 0.00 | 0.00 | 85 | 1010.6 |
| 20260506182222 | 62 | 84 | 3.0 | 10.0 | 0.00 | 0.00 | 0.00 | 85 | 1010.8 |
| 20260506181145 | 63 | 50 | 2.0 | 6.0 | 0.00 | 0.00 | 0.00 | 85 | 1010.9 |
| 20260506180219 | 63 | 5 | 1.0 | 8.0 | 0.00 | 0.00 | 0.00 | 84 | 1012.2 |
| 20260506175242 | 62 | 15 | 2.0 | 4.0 | 0.00 | 0.00 | 0.00 | 85 | 1012.3 |
| 20260506173147 | 61 | 107 | 2.0 | 5.0 | 0.00 | 0.00 | 0.00 | 86 | 1011.7 |
| 20260506172133 | 60 | 145 | 2.0 | 4.0 | 0.00 | 0.00 | 0.00 | 88 | 1012.2 |
| 20260506171207 | 59 | 13 | 2.0 | 5.0 | 0.00 | 0.00 | 0.00 | 89 | 1012.8 |
| 20260506170905 | 59 | 167 | 2.0 | 5.0 | 0.00 | 0.00 | 0.00 | 88 | 1012.8 |
| 20260506170154 | 59 | 287 | 3.0 | 5.0 | 0.00 | 0.00 | 0.00 | 88 | 1013.4 |
| 20260506165221 | 59 | 58 | 2.0 | 5.0 | 0.00 | 0.00 | 0.00 | 89 | 1013.4 |
| 20260506164147 | 59 | 35 | 2.0 | 11.0 | 0.00 | 0.00 | 0.00 | 89 | 1014.3 |
| 20260506163216 | 59 | 50 | 2.0 | 9.0 | 0.00 | 0.00 | 0.00 | 88 | 1014.2 |
| 20260506162149 | 59 | 275 | 3.0 | 8.0 | 0.00 | 0.00 | 0.00 | 88 | 1014.1 |
| 20260506161213 | 59 | 17 | 2.0 | 6.0 | 0.00 | 0.00 | 0.00 | 88 | 1013.9 |
| 20260506160124 | 60 | 345 | 3.0 | 6.0 | 0.00 | 0.00 | 0.00 | 87 | 1013.3 |
| 20260506155153 | 60 | 24 | 3.0 | 8.0 | 0.00 | 0.00 | 0.00 | 87 | 1012.9 |
| 20260506154130 | 60 | 298 | 1.0 | 6.0 | 0.00 | 0.00 | 0.00 | 88 | 1012.7 |
| 20260506153152 | 60 | 57 | 2.0 | 5.0 | 0.00 | 0.00 | 0.00 | 88 | 1012.2 |
| 20260506152206 | 60 | 60 | 3.0 | 6.0 | 0.00 | 0.00 | 0.00 | 87 | 1012.2 |
| 20260506151238 | 61 | 325 | 2.0 | 5.0 | 0.00 | 0.00 | 0.00 | 88 | 1012.1 |
| 20260506150152 | 61 | 29 | 2.0 | 6.0 | 0.00 | 0.00 | 0.00 | 88 | 1012.1 |
| 20260506145222 | 60 | 43 | 1.0 | 5.0 | 0.00 | 0.00 | 0.00 | 88 | 1012.1 |
| 20260506144151 | 60 | 355 | 2.0 | 10.0 | 0.00 | 0.00 | 0.00 | 88 | 1011.8 |
| 20260506143159 | 60 | 309 | 1.0 | 5.0 | 0.00 | 0.00 | 0.00 | 89 | 1011.6 |
| 20260506142234 | 60 | 331 | 2.0 | 9.0 | 0.00 | 0.00 | 0.00 | 90 | 1011.4 |